Airfield :
LOGIN :

Register | Disclaimer

   EN    FR    IT 

 










Legend :    VFR   Marginal VFR   IFR   Intensive IFR   Very Intensive IFR
Visi :
Ceiling :
>= 8 km
>= 3000ft
5 to 8 km
1000 to 3000 ft
1500m to 5 km
500 to 1000 ft
800 to 1500m
200 to 500 ft
< 800m
< 200 ft
Symbols :   Thunderstorms  Fog  Heavy snow  Heavy precipitations  Wind > 20 kt
SIGMETs :     Misc.  Thunderstorms  Icing  Turbulence  Mountain Waves  Volcanic Ashes







- Airport Elevation : 75 ft
- IATA code : YEO


EGDY - RNAS Yeovilton

CURRENT METAR :
  • 251146Z 27014KT 3500 -SHRA FEW012 SCT014 BKN020 11/08 Q1014 YLO1 YLO1 9999 SCT020 WHT

EXPIRED METARs :
  • 251050Z 25010KT 6000 -SHRA FEW010CB SCT040 09/07 Q1014 WHT NOSIG
  • 251029Z 26012G27KT 3000 SHRA FEW010 BKN020CB 12/07 Q1014 YLO1 NOSIG
  • 250950Z AUTO 28012KT 9999 FEW032/// SCT050/// 13/08 Q1014 RERA
  • 250850Z 26012KT 9999 VCSH FEW015 SCT030 12/07 Q1014 BLU TEMPO SCT018 7000 -SHRA WHT

TAF TAF EGDY
Valid from the 25 at 12:00 until the 25 at 21:00 UTC


251057Z 2512/2521 25015KT 9999 SCT025
TEMPO 2512/2518 25018G28KT 6000 SHRA BKN020TCU
PROB30
TEMPO 2512/2518 25020G30KT 3000 +TSRA BKN016CB
No reported NOTAMs for that airfield.



MET'MAP, your aeronautical weather chart ! - Copyright ORBIFLY December 2007 - Disclaimer

ORBIFLY MET'MAP TEAM :

Programming & Development : Alexandra Zaïnal
Concept & Development : Baudouin d'Aumeries
Co-Development & Prog : Marc-Olivier Méhu
Technical & hardware support : Manuel Goepfert

Contact : metmap@orbifly.com




SOURCES & CREDITS :

   NOAA